DAL1323 KMIA-KATL

Flight info

Callsign DAL1323
Flight time N/A
Altitude 30000
Route FLMGO2 STYMY Q77 MJAMS/N0419F290 Q77 SHRKS/N0423F300 LAIRI LARZZ JJEDI4
Aircraft A21N/M-SDE2E3FGHIRWXY/LB1

Departure

Time 2026-05-04 23:04
Airport Miami International Airport (KMIA)

Arrival

Time N/A
Airport Hartsfield Jackson Atlanta International Airport (KATL)
Time Latitude Longitude Altitude Speed Heading
2026-05-04 22:11 25.79138 -80.27704 27 ft 0 kts 89°
2026-05-04 22:11 25.79137 -80.27706 27 ft 0 kts 91°
2026-05-04 22:52 25.79137 -80.27708 27 ft 2 kts 91°
2026-05-04 22:52 25.79138 -80.27735 27 ft 3 kts 91°
2026-05-04 22:53 25.79140 -80.27758 28 ft 4 kts 118°
2026-05-04 22:53 25.79155 -80.27768 28 ft 3 kts 185°
2026-05-04 22:53 25.79178 -80.27766 27 ft 1 kts 185°
2026-05-04 22:56 25.79169 -80.27767 27 ft 3 kts 184°
2026-05-04 22:56 25.79144 -80.27769 24 ft 5 kts 184°
2026-05-04 22:57 25.79107 -80.27773 28 ft 6 kts 193°
2026-05-04 22:57 25.79062 -80.27790 27 ft 8 kts 202°
2026-05-04 22:57 25.79007 -80.27815 26 ft 9 kts 202°
2026-05-04 22:57 25.78946 -80.27849 26 ft 11 kts 224°
2026-05-04 22:58 25.78940 -80.27923 28 ft 11 kts 275°
2026-05-04 22:58 25.78926 -80.28010 28 ft 12 kts 253°
2026-05-04 22:58 25.78954 -80.28101 27 ft 14 kts 300°
2026-05-04 22:58 25.79003 -80.28197 26 ft 15 kts 299°
2026-05-04 22:59 25.79057 -80.28302 27 ft 16 kts 299°
2026-05-04 22:59 25.79114 -80.28413 23 ft 17 kts 306°
2026-05-04 22:59 25.79184 -80.28521 21 ft 18 kts 298°
2026-05-04 22:59 25.79246 -80.28645 20 ft 19 kts 299°
2026-05-04 23:00 25.79311 -80.28774 18 ft 20 kts 300°
2026-05-04 23:00 25.79381 -80.28910 21 ft 21 kts 300°
2026-05-04 23:00 25.79455 -80.29053 21 ft 22 kts 300°
2026-05-04 23:00 25.79533 -80.29205 24 ft 23 kts 299°
2026-05-04 23:01 25.79614 -80.29365 22 ft 24 kts 299°
2026-05-04 23:01 25.79696 -80.29525 21 ft 24 kts 300°
2026-05-04 23:01 25.79769 -80.29668 18 ft 19 kts 300°
2026-05-04 23:01 25.79834 -80.29795 18 ft 18 kts 300°
2026-05-04 23:02 25.79896 -80.29917 18 ft 19 kts 300°
2026-05-04 23:02 25.79963 -80.30046 18 ft 18 kts 300°
2026-05-04 23:02 25.80010 -80.30122 20 ft 10 kts 332°
2026-05-04 23:02 25.80067 -80.30126 20 ft 5 kts 46°
2026-05-04 23:03 25.80074 -80.30078 19 ft 14 kts 88°
2026-05-04 23:03 25.80083 -80.29713 19 ft 80 kts 84°
2026-05-04 23:03 25.80126 -80.28867 26 ft 137 kts 86°
2026-05-04 23:03 25.80166 -80.27671 201 ft 162 kts 86°
2026-05-04 23:04 25.80245 -80.26445 899 ft 159 kts 81°
2026-05-04 23:04 25.80424 -80.25233 1437 ft 167 kts 78°
2026-05-04 23:04 25.80477 -80.23856 1806 ft 189 kts 88°
2026-05-04 23:04 25.80480 -80.22285 2131 ft 217 kts 85°
2026-05-04 23:05 25.80522 -80.20518 2546 ft 240 kts 86°
2026-05-04 23:05 25.80784 -80.18653 3245 ft 246 kts 68°
2026-05-04 23:05 25.81674 -80.17071 4069 ft 249 kts 44°
2026-05-04 23:05 25.83151 -80.16030 4757 ft 257 kts 17°
2026-05-04 23:06 25.84934 -80.15738 5511 ft 262 kts
2026-05-04 23:06 25.86771 -80.15719 6317 ft 267 kts 357°
2026-05-04 23:06 25.88656 -80.15711 7048 ft 273 kts 355°
2026-05-04 23:06 25.90524 -80.16041 7752 ft 274 kts 340°
2026-05-04 23:07 25.92359 -80.16685 8514 ft 276 kts 338°
2026-05-04 23:07 25.94199 -80.17356 9257 ft 280 kts 337°
2026-05-04 23:07 25.96067 -80.18027 9992 ft 283 kts 337°
2026-05-04 23:07 25.97945 -80.18717 10638 ft 285 kts 333°
2026-05-04 23:08 25.99658 -80.19770 11221 ft 284 kts 317°
2026-05-04 23:08 26.01188 -80.21247 11532 ft 300 kts 313°
2026-05-04 23:08 26.02766 -80.22874 11789 ft 319 kts 313°
2026-05-04 23:08 26.04447 -80.24582 12148 ft 332 kts 313°
2026-05-04 23:09 26.06181 -80.26317 12729 ft 338 kts 313°
2026-05-04 23:09 26.07943 -80.28075 13401 ft 341 kts 313°
2026-05-04 23:09 26.09714 -80.29837 14048 ft 344 kts 313°
2026-05-04 23:09 26.11482 -80.31595 14644 ft 346 kts 313°
2026-05-04 23:10 26.13280 -80.33389 15256 ft 348 kts 313°
2026-05-04 23:10 26.15092 -80.35188 15864 ft 350 kts 313°
2026-05-04 23:10 26.16919 -80.37001 16468 ft 353 kts 313°
2026-05-04 23:10 26.18753 -80.38826 17076 ft 355 kts 313°
2026-05-04 23:11 26.20590 -80.40674 17665 ft 357 kts 313°
2026-05-04 23:11 26.22471 -80.42494 18236 ft 362 kts 317°
2026-05-04 23:11 26.24673 -80.43942 18750 ft 372 kts 328°
2026-05-04 23:11 26.27030 -80.45178 19230 ft 375 kts 329°
2026-05-04 23:12 26.29407 -80.46398 19710 ft 378 kts 329°
2026-05-04 23:12 26.31804 -80.47646 20185 ft 381 kts 328°
2026-05-04 23:12 26.34210 -80.48916 20660 ft 384 kts 328°
2026-05-04 23:12 26.36632 -80.50198 21129 ft 387 kts 328°
2026-05-04 23:13 26.39071 -80.51494 21597 ft 390 kts 328°
2026-05-04 23:13 26.41530 -80.52802 22055 ft 392 kts 328°
2026-05-04 23:13 26.43999 -80.54116 22519 ft 395 kts 328°
2026-05-04 23:13 26.46485 -80.55440 23002 ft 396 kts 328°
2026-05-04 23:14 26.49044 -80.56657 23489 ft 403 kts 334°
2026-05-04 23:14 26.51744 -80.57563 23888 ft 408 kts 337°
2026-05-04 23:14 26.54483 -80.58422 24270 ft 410 kts 338°
2026-05-04 23:14 26.57235 -80.59284 24690 ft 411 kts 338°
2026-05-04 23:15 26.59995 -80.60153 25072 ft 413 kts 337°
2026-05-04 23:15 26.62736 -80.61021 25441 ft 415 kts 337°
2026-05-04 23:15 26.65521 -80.61902 25808 ft 417 kts 337°
2026-05-04 23:15 26.68321 -80.62792 26171 ft 419 kts 337°
2026-05-04 23:16 26.71137 -80.63689 26535 ft 421 kts 337°
2026-05-04 23:16 26.73968 -80.64590 26891 ft 423 kts 337°
2026-05-04 23:16 26.76807 -80.65494 27243 ft 425 kts 337°
2026-05-04 23:16 26.79670 -80.66406 27588 ft 428 kts 337°
2026-05-04 23:17 26.82534 -80.67318 27939 ft 430 kts 337°
2026-05-04 23:17 26.85417 -80.68237 28263 ft 432 kts 337°
2026-05-04 23:17 26.88312 -80.69163 28635 ft 434 kts 336°
2026-05-04 23:17 26.91217 -80.70111 28944 ft 434 kts 335°
2026-05-04 23:18 26.94084 -80.71171 29317 ft 434 kts 334°
2026-05-04 23:18 26.96941 -80.72249 29764 ft 432 kts 333°
2026-05-04 23:18 26.99785 -80.73328 30189 ft 431 kts 333°
2026-05-04 23:18 27.02624 -80.74406 30513 ft 430 kts 333°
2026-05-04 23:19 27.05459 -80.75483 30822 ft 430 kts 333°
2026-05-04 23:19 27.08294 -80.76556 31016 ft 431 kts 333°
2026-05-04 23:19 27.13983 -80.78707 31037 ft 431 kts 333°
2026-05-04 23:20 27.19656 -80.80859 31040 ft 429 kts 334°
2026-05-04 23:20 27.25277 -80.82998 31023 ft 429 kts 334°
2026-05-04 23:21 27.30932 -80.85149 31023 ft 429 kts 334°
2026-05-04 23:21 27.36543 -80.87406 31025 ft 428 kts 332°
2026-05-04 23:22 27.42131 -80.89710 31023 ft 428 kts 332°
2026-05-04 23:22 27.46769 -80.91617 31042 ft 424 kts 333°
2026-05-04 23:23 27.52310 -80.93907 31032 ft 424 kts 332°
2026-05-04 23:23 27.57841 -80.96219 31044 ft 424 kts 332°
2026-05-04 23:24 27.63392 -80.98507 31044 ft 424 kts 332°
2026-05-04 23:24 27.68942 -81.00813 31038 ft 424 kts 332°
2026-05-04 23:25 27.74488 -81.03106 31049 ft 425 kts 333°
2026-05-04 23:25 27.80045 -81.05362 31060 ft 425 kts 333°
2026-05-04 23:26 27.85558 -81.07637 31042 ft 425 kts 332°
2026-05-04 23:26 27.91106 -81.09941 31052 ft 424 kts 332°
2026-05-04 23:27 27.96651 -81.12243 31051 ft 424 kts 332°
2026-05-04 23:27 28.02186 -81.14571 31059 ft 424 kts 332°
2026-05-04 23:28 28.07553 -81.17223 31057 ft 420 kts 328°
2026-05-04 23:28 28.12877 -81.19968 31075 ft 421 kts 329°
2026-05-04 23:29 28.18203 -81.22701 31070 ft 421 kts 329°
2026-05-04 23:29 28.23526 -81.25465 31070 ft 421 kts 328°